This is the latest recevied weather packets stored in our database for station/object KG5MMT-15. If no packets are shown the sender has not sent any weather packets the latest 10 day(s).
| Time | Temp. | Humidity | Pressure | Rain* | Wind** | Luminosity | Snow |
|---|---|---|---|---|---|---|---|
| 1777913839 | 17.78° C | 27% | 0 hPa | 0 mm | - | - | - |
| 1777913539 | 17.22° C | 27% | 0 hPa | 0 mm | - | - | - |
| 1777913239 | 17.22° C | 29% | 0 hPa | 0 mm | - | - | - |
| 1777912939 | 17.22° C | 29% | 0 hPa | 0 mm | - | - | - |
| 1777912639 | 17.22° C | 30% | 0 hPa | 0 mm | - | - | - |
| 1777912339 | 16.67° C | 29% | 0 hPa | 0 mm | - | - | - |
| 1777912039 | 16.67° C | 30% | 0 hPa | 0 mm | - | - | - |
| 1777911739 | 16.67° C | 30% | 0 hPa | 0 mm | - | - | - |
| 1777911439 | 16.67° C | 30% | 0 hPa | 0 mm | - | - | - |
| 1777911139 | 16.67° C | 31% | 0 hPa | 0 mm | - | - | - |
| 1777910839 | 17.22° C | 33% | 0 hPa | 0 mm | - | - | - |
| 1777910539 | 16.67° C | 34% | 0 hPa | 0 mm | - | - | - |
| 1777910239 | 16.67° C | 34% | 0 hPa | 0 mm | - | - | - |
| 1777909939 | 16.67° C | 36% | 0 hPa | 0 mm | - | - | - |
| 1777909639 | 16.67° C | 34% | 0 hPa | 0 mm | - | - | - |
| 1777909339 | 16.67° C | 37% | 0 hPa | 0 mm | - | - | - |
| 1777909039 | 16.67° C | 38% | 0 hPa | 0 mm | - | - | - |
| 1777908739 | 16.11° C | 39% | 0 hPa | 0 mm | - | - | - |
| 1777908439 | 16.11° C | 38% | 0 hPa | 0 mm | - | - | - |
| 1777908139 | 16.11° C | 40% | 0 hPa | 0 mm | - | - | - |
| 1777907839 | 15.56° C | 40% | 0 hPa | 0 mm | - | - | - |
| 1777907539 | 15.56° C | 41% | 0 hPa | 0 mm | - | - | - |
| 1777907239 | 15.56° C | 41% | 0 hPa | 0 mm | - | - | - |
| 1777906939 | 15° C | 42% | 0 hPa | 0 mm | - | - | - |
| 1777906639 | 15° C | 42% | 0 hPa | 0 mm | - | - | - |
* Rain latest hour (hover to see other rain measurements)
** Current wind speed in m/s (hover to see current wind gust speed)